Вернуться в каталог

ALSAT-3B

АктивенНаукаSSO
NORAD 67646·PAYLOAD·🇨🇳 China
Это название спутника еще не подтверждено официальными источниками.

Запущен Jan 31, 2026 с Jiuquan Satellite Launch Center

Loading…

Ближайшие Пролёты (ближайшие 24 часа)

TLE

СвежийSource: Space-Track

Эпоха: Sep 14, 2026, 11:47 UTC

1 67646U 26021A   26257.49111171  .00004462  00000-0  18904-3 0  9998
2 67646  97.4513 330.6681 0011630 205.3852 154.6815 15.23614665 34469

Отслеживайте ALSAT-3B в реальном времени с AllMySat

Download on the App Store